This is the latest recevied weather packets stored in our database for station/object KC5TIL-3. If no packets are shown the sender has not sent any weather packets the latest 10 day(s).
| Time | Temp. | Humidity | Pressure | Rain* | Wind** | Luminosity | Snow |
|---|---|---|---|---|---|---|---|
| 1777998509 | 26.11° C | 41% | 1002.8 hPa | 0 mm | 4.02 m/s, 182° | - | - |
| 1777998208 | 25.56° C | 41% | 1002.8 hPa | 0 mm | 6.26 m/s, 186° | - | - |
| 1777997909 | 25° C | 42% | 1002.8 hPa | 0 mm | 6.26 m/s, 226° | - | - |
| 1777997612 | 25.56° C | 42% | 1002.8 hPa | 0 mm | 5.81 m/s, 213° | - | - |
| 1777997305 | 25° C | 43% | 1002.8 hPa | 0 mm | 6.26 m/s, 212° | - | - |
| 1777997007 | 25° C | 43% | 1002.8 hPa | 0 mm | 6.71 m/s, 178° | - | - |
| 1777996403 | 25.56° C | 43% | 1002.8 hPa | 0 mm | 4.47 m/s, 126° | - | - |
| 1777996104 | 25° C | 44% | 1002.8 hPa | 0 mm | 5.81 m/s, 234° | - | - |
| 1777995505 | 24.44° C | 48% | 1002.8 hPa | 0 mm | 5.81 m/s, 217° | - | - |
| 1777995207 | 24.44° C | 49% | 1002.8 hPa | 0 mm | 5.81 m/s, 115° | - | - |
| 1777994602 | 23.89° C | 50% | 1002.8 hPa | 0 mm | 6.71 m/s, 211° | - | - |
| 1777994304 | 23.89° C | 51% | 1002.8 hPa | 0 mm | 6.26 m/s, 146° | - | - |
| 1777993407 | 23.89° C | 51% | 1002.8 hPa | 0 mm | 5.36 m/s, 187° | - | - |
| 1777992798 | 23.33° C | 54% | 1002.8 hPa | 0 mm | 4.92 m/s, 223° | - | - |
| 1777992500 | 23.33° C | 55% | 1002.8 hPa | 0 mm | 5.36 m/s, 154° | - | - |
| 1777992203 | 23.33° C | 57% | 1002.8 hPa | 0 mm | 4.92 m/s, 230° | - | - |
| 1777991901 | 23.33° C | 57% | 1002.8 hPa | 0 mm | 5.36 m/s, 224° | - | - |
| 1777991598 | 23.33° C | 59% | 1002.8 hPa | 0 mm | 5.36 m/s, 196° | - | - |
| 1777991299 | 22.78° C | 59% | 1002.8 hPa | 0 mm | 5.81 m/s, 214° | - | - |
| 1777990998 | 23.33° C | 60% | 1002.8 hPa | 0 mm | 4.47 m/s, 195° | - | - |
| 1777989504 | 22.78° C | 61% | 1002.8 hPa | 0 mm | 5.36 m/s, 173° | - | - |
| 1777989203 | 22.78° C | 61% | 1002.8 hPa | 0 mm | 4.47 m/s, 139° | - | - |
| 1777988906 | 22.78° C | 62% | 1002.8 hPa | 0 mm | 4.92 m/s, 176° | - | - |
| 1777988607 | 22.78° C | 62% | 1002.8 hPa | 0 mm | 4.47 m/s, 167° | - | - |
| 1777988305 | 22.78° C | 63% | 1002.8 hPa | 0 mm | 6.71 m/s, 225° | - | - |
* Rain latest hour (hover to see other rain measurements)
** Current wind speed in m/s (hover to see current wind gust speed)